GFSFLT2_con_mucape_084.txt.gz
CAPE
81 209 310 376 335 547 1034 1096 1044 1082 718 512 413 332 283 298 183 30 1 0 82 9 0 0 0 0 0 0 0 0 0 0
76 64 94 173 91 205 447 796 897 903 465 291 190 205 175 120 0 0 0 0 1 6 0 0 0 0 0 0 0 0 0 0
60 11 2 60 67 57 145 254 528 462 356 203 149 97 33 0 0 0 0 0 0 1 0 0 0 0 0 0 0 0 0 0
54 10 7 17 22 50 25 20 101 234 260 142 72 56 0 0 0 0 0 0 1 14 3 0 0 0 0 0 0 0 0 0
9 15 19 0 2 48 47 41 51 178 194 85 38 11 0 0 0 0 0 0 0 0 0 0 0 0 0 0 0 0 0 0
14 7 36 13 0 4 28 26 27 107 100 88 19 0 0 0 0 0 0 0 3 2 0 0 0 0 0 0 0 0 0 0
12 24 7 14 3 12 1 29 65 75 143 90 35 0 0 0 0 0 0 0 6 4 0 0 0 0 0 0 0 0 0 0
36 20 20 5 15 38 15 32 31 68 127 124 40 6 0 0 0 0 7 3 11 4 0 0 0 0 0 0 0 0 0 0
36 27 23 8 20 10 16 37 13 69 92 116 57 23 12 0 13 9 8 23 25 10 12 6 1 0 0 0 0 0 0 0
14 22 3 16 24 8 2 1 4 30 71 100 97 41 7 1 10 17 27 33 27 25 18 17 4 0 0 0 0 0 0 0
16 8 7 7 7 13 14 8 9 55 74 76 88 33 28 10 1 3 21 25 25 25 20 12 8 0 0 0 0 0 0 0
11 14 5 4 20 6 10 16 27 47 37 62 93 62 13 0 2 1 3 5 1 7 15 17 11 2 0 0 0 0 0 0
16 13 15 0 13 18 24 13 5 2 12 34 95 71 8 1 0 0 0 0 0 0 0 12 25 17 0 0 0 0 0 0
0 3 8 1 23 6 30 16 2 61 65 27 58 51 38 7 0 0 0 0 0 8 10 25 22 7 3 3 0 0 0 0
3 7 3 3 4 12 17 3 4 96 36 52 73 68 68 73 84 94 107 82 58 50 44 30 35 21 18 0 1 0 4 7
1 1 0 0 1 4 10 11 13 9 8 0 68 66 95 88 81 103 125 99 85 74 71 62 62 51 18 3 12 17 108 7
4 2 0 0 0 0 0 1 1 3 2 32 9 1 1 7 3 0 4 34 60 55 73 108 124 90 40 45 41 40 38 31
0 0 0 0 0 0 0 0 0 0 0 0 0 0 0 0 0 0 18 27 24 50 102 92 99 81 66 66 57 41 45 60
0 0 0 0 0 0 0 0 0 0 0 0 0 0 0 0 0 0 8 22 55 93 112 105 108 119 123 61 66 47 60 53
0 0 0 0 0 0 0 0 0 0 0 0 0 0 0 0 0 5 14 41 84 150 127 96 107 117 107 125 89 41 52 11

GFSFLT2_con_mucape_087.txt.gz
CAPE
307 268 207 66 271 655 970 1156 1127 963 773 623 589 507 452 494 254 96 169 230 123 0 0 0 0 0 0 0 0 0 0 3
270 287 451 212 237 205 437 919 973 742 523 373 275 285 266 160 13 59 258 324 93 0 0 0 0 0 0 0 0 0 0 1
71 90 183 248 66 130 184 500 582 558 368 180 185 386 209 13 0 24 208 153 40 0 0 0 0 0 0 0 0 0 0 0
7 10 23 40 166 119 211 245 400 345 281 299 242 210 57 0 0 0 71 124 37 9 0 0 0 0 0 0 0 0 0 3
29 1 5 20 66 72 191 108 266 205 170 199 118 39 1 0 0 0 0 51 24 11 0 0 0 0 0 0 0 0 0 1
57 5 9 6 14 16 56 83 98 107 102 114 71 3 0 0 0 0 0 0 56 23 0 0 0 0 0 0 0 0 0 0
30 14 22 13 22 29 19 27 77 72 44 119 22 0 0 2 0 0 0 0 0 0 0 0 0 0 0 0 0 0 0 0
27 27 31 19 26 20 24 14 41 12 43 60 22 0 0 0 0 0 0 0 0 0 0 0 0 0 0 0 0 0 0 0
24 57 31 15 0 13 5 5 39 7 10 68 20 0 0 0 0 0 0 0 3 12 0 0 0 0 0 0 0 0 0 0
17 26 16 11 7 4 9 8 17 4 23 36 46 27 5 0 6 20 1 2 13 4 0 0 0 0 0 0 0 0 0 0
4 23 23 11 23 18 6 16 10 13 48 72 53 31 4 6 32 27 18 25 42 37 25 23 21 7 1 0 0 0 0 0
1 22 10 12 7 2 1 22 33 20 18 78 98 77 47 28 13 16 15 38 34 35 40 33 48 54 27 5 0 0 0 0
3 1 20 10 11 9 17 12 2 7 6 45 91 50 43 56 8 0 11 18 23 29 35 41 40 38 39 15 3 0 0 0
1 3 9 12 10 3 5 2 6 2 36 27 36 33 31 51 32 9 0 4 2 1 13 24 19 15 18 10 0 0 0 0
0 0 2 1 5 3 7 9 4 0 1 0 38 31 28 12 23 33 48 27 6 9 3 5 21 10 17 6 0 0 0 3
0 1 0 2 3 1 6 0 4 13 1 0 2 20 41 27 38 64 74 61 53 19 21 58 63 29 11 12 20 6 15 0
0 0 0 0 0 0 2 3 8 13 5 1 0 55 70 70 102 117 94 80 54 88 82 100 94 71 31 22 27 13 16 22
0 0 0 0 0 0 2 0 0 3 31 0 3 1 34 33 70 84 74 74 76 78 87 78 62 42 37 47 42 29 7 16
0 0 0 0 0 0 0 0 0 0 2 3 0 0 0 5 20 33 36 61 56 87 91 49 25 45 55 63 59 33 38 41
0 0 0 0 0 0 0 0 0 0 0 0 0 0 0 0 0 4 13 25 48 74 149 130 28 73 71 71 42 76 72 68

GFSFLT2_con_mucape_093.txt.gz
CAPE
1275 1364 1270 734 513 179 27 128 97 368 1230 1244 1108 898 735 736 769 567 103 31 3 5 7 1 0 0 0 0 0 0 7 3
1146 1033 1362 1333 811 107 41 7 90 313 774 1011 818 673 635 738 543 255 51 1 2 5 3 0 0 0 0 0 0 1 2 0
779 721 1017 787 504 97 48 2 7 108 611 846 722 839 838 652 392 134 40 1 2 3 1 0 0 0 0 0 0 9 6 2
263 415 657 590 181 217 93 1 0 43 1048 794 1020 1045 798 513 231 74 23 4 1 0 0 0 0 0 0 0 4 15 8 0
259 194 328 380 271 219 114 25 20 105 939 697 796 1032 675 663 397 103 1 0 0 0 0 0 0 0 0 0 1 16 11 0
321 83 121 229 253 281 133 120 5 197 430 550 684 749 538 432 384 93 0 0 0 0 0 6 0 0 0 0 1 9 12 1
86 64 102 95 99 74 203 107 99 142 89 258 471 350 371 225 273 182 36 10 0 0 1 4 1 0 0 0 1 5 6 0
23 15 24 9 84 9 9 203 92 61 38 57 98 137 144 205 288 240 147 62 29 8 18 5 0 0 0 0 0 0 3 2
16 0 2 0 6 6 56 122 93 41 20 95 90 43 125 220 324 288 203 194 278 91 26 0 0 0 0 0 0 0 0 6
0 0 1 0 1 0 9 17 104 61 33 57 41 44 147 226 182 196 258 254 101 48 21 0 0 0 0 0 0 0 0 1
0 0 1 0 0 2 8 31 94 33 12 19 10 7 83 162 110 119 129 75 87 59 2 4 7 1 0 0 0 0 0 0
0 0 1 0 0 0 1 0 17 10 6 15 14 1 50 124 32 6 11 0 0 1 12 27 0 0 0 0 0 0 0 0
0 0 0 0 0 0 1 0 0 2 2 8 5 13 41 85 51 15 5 12 2 9 47 62 28 4 8 13 24 8 0 0
0 0 0 0 0 8 0 16 6 30 8 5 6 0 65 78 65 51 42 64 49 92 100 72 43 32 34 41 36 1 0 1
0 0 0 0 3 1 1 18 1 8 21 15 7 0 80 104 92 97 99 70 170 185 163 127 99 24 42 98 139 111 77 3
0 0 0 0 19 0 0 0 0 9 6 0 5 95 97 64 111 138 135 215 245 107 148 166 294 172 99 35 167 129 149 132
17 0 0 0 2 3 0 0 0 4 0 0 0 0 1 38 116 168 145 182 239 216 280 349 316 270 216 186 104 96 142 121
21 13 0 2 0 0 0 1 1 0 0 0 1 2 0 63 170 148 262 245 224 305 338 329 287 288 332 254 241 142 103 176
4 8 7 0 0 0 0 0 3 7 2 1 0 0 0 31 84 147 259 277 276 282 308 375 412 369 485 422 389 232 310 333
9 4 2 0 0 0 0 0 3 13 5 14 7 4 0 2 2 41 190 236 258 329 373 587 519 459 509 573 472 387 252 186

GFSFLT2_con_mucape_096.txt.gz
CAPE
1791 1804 1374 929 1000 932 712 319 72 73 6 59 1065 788 607 681 665 550 357 196 122 67 2 0 0 0 0 0 0 2 0 0
1351 1302 1462 1425 678 776 553 178 45 0 0 10 402 347 436 546 378 267 181 115 22 4 0 0 0 0 0 0 0 11 0 0
905 1001 1241 1325 911 330 128 125 8 0 1 25 299 289 396 453 121 101 80 19 12 3 0 0 0 0 0 0 0 0 0 0
474 648 782 782 521 196 51 62 53 12 7 26 296 327 473 371 47 26 16 12 7 1 0 0 0 0 0 0 0 5 0 0
424 343 536 541 243 160 53 14 7 3 5 6 273 382 341 210 13 11 4 2 0 0 0 0 0 0 0 0 0 0 0 0
472 369 217 197 263 105 56 12 0 3 10 9 240 264 310 102 0 0 0 0 0 0 0 0 0 0 0 0 0 2 0 0
453 87 114 90 68 96 87 6 0 39 54 77 181 143 229 79 8 0 0 0 0 0 0 0 0 0 0 0 0 2 0 0
116 25 40 32 74 55 92 49 0 18 57 181 112 108 111 72 0 0 0 0 0 0 0 0 0 0 0 0 0 2 0 0
26 5 5 0 29 23 10 64 8 62 95 81 122 100 87 25 27 0 3 0 0 1 0 0 0 0 0 0 0 0 0 0
25 0 3 4 23 2 0 27 5 32 39 8 36 49 58 52 94 49 29 8 0 23 3 0 0 0 0 0 0 0 0 0
11 0 1 0 0 0 0 1 17 1 7 11 38 31 48 120 102 117 80 99 70 17 0 0 0 0 0 0 0 0 0 0
0 5 3 0 0 0 0 36 16 34 9 2 13 13 66 94 56 69 78 56 23 2 0 0 0 0 0 0 0 0 0 0
0 0 0 0 0 0 0 0 31 11 16 7 3 14 45 60 49 44 19 35 25 8 0 0 0 0 0 0 0 0 0 0
0 0 0 0 0 0 1 7 1 8 3 9 6 6 2 29 47 51 44 32 4 0 0 0 1 2 0 14 25 9 11 2
12 0 2 0 5 0 10 8 1 2 8 8 12 5 7 4 43 45 38 11 11 25 3 13 5 21 5 38 85 46 51 36
7 0 0 0 10 8 17 7 14 7 3 6 10 9 3 38 50 62 33 47 48 40 38 43 46 34 21 31 60 97 75 4
9 2 0 0 5 0 0 0 27 25 12 11 11 16 7 6 8 67 74 76 58 92 74 69 79 173 88 103 45 53 32 26
11 6 5 0 0 0 0 0 0 1 6 15 7 8 3 0 0 85 95 48 54 71 64 87 149 208 150 150 94 73 36 19
5 10 3 0 0 0 0 0 0 2 0 0 2 6 3 0 0 0 0 36 43 42 61 89 165 137 130 126 147 114 87 70
41 12 3 1 0 0 0 0 0 1 0 7 2 1 3 8 0 0 42 31 44 74 117 132 160 176 139 125 136 136 107 101

GFSFLT2_con_mucape_102.txt.gz
CAPE
1379 1391 1469 1714 2081 2221 1920 1607 1374 997 750 233 163 268 143 362 507 722 676 500 485 378 142 45 1 0 0 0 0 0 0 0
1284 1304 1312 1295 1257 1606 1886 1354 1062 618 437 205 70 52 59 246 354 654 554 431 350 226 80 0 0 0 0 0 0 0 0 0
1082 1120 978 942 956 1107 1320 1120 655 449 235 89 40 3 73 195 201 444 461 316 214 64 13 0 0 0 0 0 0 0 0 0
663 551 524 917 931 816 787 856 455 325 111 81 53 25 20 82 116 274 312 211 95 19 8 0 0 0 0 0 0 0 0 0
463 360 605 1000 890 550 397 979 357 188 103 64 40 16 38 28 104 136 91 70 6 1 0 0 0 0 0 0 0 0 0 0
507 239 382 722 444 273 246 380 207 134 83 65 15 1 13 81 85 49 54 0 0 0 0 0 0 0 0 0 0 0 0 0
199 150 286 272 184 59 8 33 38 39 39 44 35 50 5 78 8 30 1 0 0 0 0 0 0 0 0 0 0 0 0 0
108 38 35 16 20 44 22 6 28 51 46 54 39 69 81 11 1 3 0 0 0 0 0 0 0 0 0 0 0 0 0 0
58 35 0 0 31 30 18 11 1 0 15 23 26 25 56 10 9 0 0 0 0 0 0 0 0 0 0 0 0 0 0 0
4 0 0 8 0 14 17 7 0 4 3 0 38 47 82 42 6 0 0 0 0 0 0 0 0 0 0 0 0 0 0 0
0 0 0 2 4 3 18 7 16 49 29 4 28 6 42 26 0 0 0 0 0 0 0 0 0 0 0 0 0 0 0 0
0 0 0 1 26 3 12 14 18 57 15 0 40 11 9 4 0 0 0 0 0 0 0 0 0 0 0 0 0 0 0 0
0 0 0 1 3 3 0 10 2 25 49 3 56 9 43 23 0 0 0 0 0 0 0 0 0 0 0 0 0 0 0 0
0 0 0 1 2 0 0 0 16 14 22 8 55 6 61 54 0 0 0 0 0 0 0 0 0 0 0 0 0 0 1 0
0 0 0 0 3 0 0 0 4 8 11 2 31 27 50 71 0 0 0 0 1 0 0 0 0 0 0 0 0 0 0 0
0 0 0 0 1 1 0 1 0 4 11 24 49 49 50 36 5 1 0 0 17 23 15 0 0 1 0 0 3 8 3 0
0 0 0 0 0 1 6 0 0 0 2 5 29 37 32 45 60 100 79 51 60 62 44 15 0 0 0 0 16 61 51 55
0 0 0 0 0 0 5 8 0 0 2 6 2 6 13 3 7 42 70 72 38 57 72 9 0 0 0 0 1 39 40 52
0 0 0 0 0 1 4 8 0 0 6 2 3 2 6 12 8 26 33 26 6 55 33 18 22 18 5 22 17 20 22 26
0 0 0 2 0 0 0 0 1 0 7 18 4 4 3 13 6 3 9 6 13 41 0 4 40 33 39 54 56 67 60 60

GFSFLT2_con_mucape_105.txt.gz
CAPE
1408 1570 1738 1876 1948 1938 1924 1872 1610 993 623 569 389 386 306 325 257 419 479 592 628 445 335 140 9 0 0 0 0 0 0 0
1309 1302 1414 1723 1880 1992 1848 1740 1421 821 346 157 207 171 133 31 182 269 338 507 482 343 180 48 3 0 0 0 0 0 0 0
1045 1149 1173 1197 1262 1465 1843 1646 980 722 415 158 125 133 171 183 120 174 282 368 352 252 81 1 0 0 0 0 0 0 0 0
901 1020 1023 956 791 903 1028 1352 921 462 396 193 73 69 123 69 66 140 210 287 213 131 6 3 0 0 0 0 0 0 0 0
607 667 562 563 721 736 748 725 990 505 309 164 53 72 46 0 7 92 115 125 36 3 3 11 0 0 0 0 0 0 0 0
527 366 317 492 636 650 416 414 547 461 298 114 54 53 45 5 89 145 71 8 0 0 0 8 0 0 0 0 0 0 0 0
555 340 240 468 623 522 265 194 266 232 206 76 69 52 32 21 103 134 73 0 0 0 0 1 0 0 0 0 0 0 0 0
584 353 166 403 328 160 106 85 77 75 103 96 64 50 28 42 77 83 103 36 0 0 0 0 0 0 0 0 0 0 0 0
536 125 73 46 14 21 29 57 35 20 35 66 77 55 34 78 79 56 84 42 0 0 0 0 0 0 0 0 0 0 0 0
223 59 0 0 0 5 17 17 32 16 12 3 58 40 40 74 22 19 67 29 0 0 0 0 0 0 0 0 0 0 0 0
198 13 0 0 0 10 18 11 11 0 4 16 6 2 69 39 29 2 58 0 0 0 0 0 0 0 0 0 0 0 0 0
98 3 0 0 0 4 20 14 15 0 44 48 3 3 5 47 12 25 71 0 0 0 0 0 0 0 0 0 0 0 0 0
42 13 0 0 2 4 11 37 3 16 44 35 10 7 9 36 29 11 2 0 0 0 0 0 0 0 0 0 0 0 0 0
31 18 0 0 0 0 0 0 6 5 13 35 15 8 11 44 52 32 0 0 0 0 0 0 0 0 0 0 0 0 0 0
52 0 0 0 0 0 0 0 0 10 5 14 16 9 35 71 67 14 0 0 0 0 0 0 0 0 0 0 0 0 0 0
77 0 0 0 0 0 0 0 0 0 0 6 15 44 47 57 65 0 0 0 0 0 0 0 0 0 0 0 0 0 0 0
72 0 0 0 0 0 0 0 0 0 8 2 15 56 55 57 38 14 0 0 0 0 0 0 0 0 0 0 4 20 3 10
57 0 0 0 0 0 1 0 0 0 15 1 9 38 24 31 56 22 6 7 23 20 48 42 14 3 0 0 11 76 57 56
5 0 7 0 0 0 0 3 3 2 0 11 21 24 7 9 50 31 0 41 72 107 108 100 100 14 4 12 9 26 47 34
0 0 5 0 0 0 0 1 0 2 0 11 21 16 17 13 5 5 15 35 53 79 100 99 11 20 24 30 18 12 35 45

GFSFLT2_con_mucape_108.txt.gz
CAPE
1372 1522 1368 1554 1798 1869 1600 1630 1359 954 899 704 689 561 594 670 613 760 742 743 641 517 380 267 267 209 119 74 56 39 22 14
1274 1457 1509 1475 1844 1805 1729 1545 960 700 536 363 150 240 254 346 436 514 605 532 501 385 221 151 112 74 19 5 1 0 4 0
1357 1349 1533 1527 2354 1666 1741 1434 967 631 405 335 195 169 240 250 170 360 389 512 361 291 114 70 30 0 0 0 0 0 0 0
1146 1201 1204 1272 1388 1542 1830 1389 1117 623 264 104 97 97 29 27 56 238 341 377 261 150 99 26 9 0 0 0 0 0 0 0
804 961 982 980 968 1056 1050 1262 1131 789 488 89 43 84 90 48 92 205 199 212 92 46 63 5 0 0 0 0 0 0 0 0
556 782 819 738 617 822 386 826 925 751 563 152 58 66 47 43 44 129 143 114 63 0 11 2 0 0 0 0 0 0 0 0
326 552 495 301 609 535 733 339 332 520 424 230 112 42 44 34 51 140 100 64 66 1 7 3 0 0 0 0 0 0 0 0
403 475 400 445 396 115 307 192 198 295 231 207 128 75 44 41 62 108 83 60 29 0 0 3 6 0 0 0 0 0 0 0
388 532 474 244 234 288 120 219 86 102 145 113 137 61 43 65 38 50 78 32 0 0 6 5 9 0 0 0 0 0 0 0
361 530 476 133 201 295 59 60 76 49 38 51 91 76 62 61 67 118 76 46 0 0 7 2 3 0 0 0 0 0 0 0
367 570 362 70 8 1 8 17 8 14 1 11 54 50 19 26 58 73 93 74 0 1 0 7 0 0 0 0 0 0 0 0
468 563 191 4 0 2 16 8 13 7 6 6 20 14 31 16 23 18 49 65 17 0 0 15 0 0 0 0 0 0 0 0
584 341 139 0 1 3 7 18 13 6 0 0 17 12 10 27 26 9 21 34 18 2 0 19 0 0 0 0 0 0 0 0
415 279 99 4 2 0 3 6 8 6 15 10 32 12 6 16 3 12 9 2 26 2 0 8 0 0 0 0 0 0 0 0
335 270 50 6 0 1 3 0 6 8 5 9 43 10 11 7 2 8 9 3 6 0 0 0 0 0 0 0 0 0 0 0
331 215 61 9 2 1 1 0 0 1 95 13 12 40 19 13 18 36 11 34 0 0 0 0 0 0 0 0 0 0 0 0
297 199 87 5 0 0 0 0 0 16 6 12 14 28 21 30 27 51 0 40 0 0 0 0 0 0 0 0 0 0 0 0
278 209 115 3 0 0 0 17 0 0 0 0 1 11 12 27 47 116 75 4 0 0 0 0 0 0 0 2 4 11 5 24
266 202 146 0 0 0 0 0 0 8 0 12 0 5 17 45 56 68 52 0 0 0 0 0 1 0 4 10 8 41 62 63
233 195 145 0 0 1 3 0 0 5 7 14 10 22 40 35 38 42 35 5 3 0 0 0 6 29 5 18 13 28 22 24

GFSFLT2_con_mucape_111.txt.gz
CAPE
1824 1822 1631 1581 1524 1285 1513 1446 1384 1205 1152 875 894 941 1045 1152 1028 983 1127 1064 1030 936 665 567 484 447 345 210 67 92 335 326
1809 1879 1894 2023 2064 1482 1296 1448 1143 881 744 428 394 437 550 651 606 831 971 903 809 659 507 497 391 403 318 205 127 121 221 116
1556 1809 1882 1702 1666 1988 1445 1360 1010 765 525 269 200 491 371 142 308 538 650 638 609 378 412 305 371 307 278 211 93 46 54 60
1466 1666 1577 1807 1667 1474 1953 1462 1006 784 770 420 436 333 362 232 244 282 497 498 346 301 268 226 251 202 102 13 5 1 10 24
1224 1432 1704 1457 1678 1191 1477 1466 1054 835 599 627 286 256 254 305 177 393 505 474 391 238 199 137 91 24 0 0 0 0 2 13
1113 1217 1269 1173 1220 1272 1531 1236 1186 763 597 385 428 313 256 217 99 148 228 525 326 154 103 41 10 0 0 0 0 0 0 3
920 963 1108 860 879 945 921 1256 680 616 377 315 178 377 283 201 152 177 269 161 146 120 81 36 7 0 0 0 0 0 0 3
691 794 747 847 778 742 409 782 440 528 202 133 193 109 148 142 136 261 98 153 75 66 76 3 7 0 0 0 0 0 0 4
526 571 636 663 379 326 295 472 543 159 75 59 87 87 84 113 197 103 103 125 55 58 49 0 6 8 0 0 0 0 1 3
408 274 500 562 509 499 83 254 464 81 26 49 70 91 65 73 102 90 104 66 54 52 27 4 17 9 0 4 0 0 2 3
290 388 539 609 567 304 173 468 64 136 13 16 26 22 30 66 185 78 67 57 40 20 21 39 10 7 0 0 0 1 2 8
293 425 564 630 544 228 291 37 14 35 6 69 22 31 47 65 91 60 12 20 30 3 12 42 0 0 0 0 2 1 2 7
192 281 569 645 399 166 30 31 8 2 8 11 5 14 48 34 6 24 32 34 23 5 25 35 0 4 0 2 5 3 9 7
63 198 588 583 303 71 19 32 11 6 17 16 6 16 16 27 16 17 23 38 49 10 12 24 0 0 1 3 3 2 9 10
84 288 667 465 245 26 0 18 3 15 40 14 4 6 20 22 22 18 26 46 35 4 4 6 0 0 0 0 7 12 3 6
127 471 554 390 227 50 0 2 15 26 23 24 4 7 73 6 12 30 17 23 30 15 21 3 0 0 0 0 0 0 0 0
115 471 471 358 191 62 1 13 28 17 8 19 10 3 18 12 7 10 19 26 3 6 7 13 0 0 0 0 0 0 0 0
113 441 414 342 186 87 4 3 3 20 6 0 5 15 4 11 13 7 28 4 2 1 6 5 0 0 2 0 0 0 5 39
15 364 413 292 171 47 11 0 1 23 3 0 0 9 3 31 24 9 3 4 6 16 21 0 0 0 0 0 11 43 86 105
5 297 377 266 153 13 10 13 1 30 1 14 2 2 9 6 30 14 54 54 70 18 0 0 0 0 0 0 28 73 125 126

GFSFLT2_con_mucape_114.txt.gz
CAPE
2222 2128 1791 1271 1244 1373 1663 1743 1632 1555 1326 1266 926 699 683 1097 912 1300 1406 1279 1304 1128 799 652 566 492 445 294 227 273 584 486
2247 2333 2283 2084 1794 1165 1387 1489 1596 1517 1286 1063 727 268 661 867 915 1090 1178 1188 1187 848 625 479 482 471 388 244 150 293 512 487
2280 2348 2354 2231 2240 1712 1223 1455 1247 1225 1140 913 623 1130 1304 1063 679 850 1004 963 892 560 504 385 377 377 280 264 150 552 481 367
2136 2340 2396 2168 2114 2164 2079 2217 2073 1764 1538 1148 1272 1281 936 510 216 611 751 648 534 358 316 349 320 401 273 249 529 379 422 289
2080 2287 2436 2036 1707 1797 2331 2503 2280 2113 1712 1448 1179 1070 617 179 328 625 1117 452 715 365 261 522 555 525 385 430 204 198 49 38
2106 2161 2419 2009 1715 1641 2075 1876 2072 1633 1576 1415 1221 1255 1006 475 508 436 683 512 837 765 816 591 470 337 327 219 83 40 35 24
1960 2133 2281 2108 1812 1805 1517 1592 1356 1126 1134 975 980 1268 1027 457 406 239 460 743 191 494 604 375 299 214 228 105 50 24 28 24
1607 1986 2105 1899 1512 1317 1245 1446 1335 900 750 1204 982 1313 761 828 754 334 425 439 282 149 80 220 174 183 169 86 57 18 12 17
1327 1842 1918 1761 1554 1378 1157 1208 1325 767 556 770 716 584 500 755 851 900 307 543 370 75 47 114 131 161 119 144 59 14 11 14
913 1260 1795 1497 1279 1329 1041 925 980 774 565 372 401 363 202 327 550 814 525 146 120 45 30 154 171 169 106 129 57 15 18 16
722 1373 1697 1494 1428 1018 687 687 584 311 182 398 345 268 188 242 126 668 400 175 244 56 64 185 146 156 109 68 54 33 27 13
588 1171 1475 1290 1032 686 724 607 390 175 178 47 166 62 98 82 61 118 187 129 194 111 139 180 150 138 56 70 54 30 40 14
586 978 1374 917 588 569 661 555 274 295 284 15 3 8 53 9 32 98 61 52 227 147 228 204 180 162 119 80 50 35 32 19
534 854 1293 845 503 805 582 306 99 30 57 59 32 51 3 16 19 58 56 60 94 54 181 204 172 192 106 73 38 51 44 33
605 827 1180 853 1068 581 677 494 137 281 181 139 31 7 21 15 3 25 36 51 33 13 129 167 137 181 155 34 17 26 34 29
501 762 854 863 1040 690 595 396 157 152 175 148 61 93 63 6 19 26 36 44 49 22 16 68 162 125 121 20 8 14 31 30
147 449 568 789 957 719 455 154 132 104 214 210 207 79 29 9 38 44 28 7 38 33 31 24 74 203 143 26 44 44 58 4
46 330 673 442 505 435 272 115 42 92 97 163 142 48 20 17 22 22 43 28 4 33 20 17 153 200 172 83 48 39 50 4
231 759 422 517 506 387 244 110 4 6 14 65 51 1 3 14 1 10 13 5 1 8 41 13 99 191 165 133 24 42 0 1
57 500 230 485 450 371 221 21 10 18 70 42 13 1 2 2 9 6 7 14 3 6 33 9 27 132 231 138 64 51 60 57

GFSFLT2_con_mucape_117.txt.gz
CAPE
2125 1825 1551 1379 1509 1490 1693 1671 1745 1784 1701 1351 902 529 252 182 292 685 560 1162 1407 1150 842 727 668 530 455 347 300 420 683 639
2196 2121 2087 2109 1889 1335 1450 1588 1506 1596 1332 1248 906 499 342 316 704 827 1077 1224 1218 941 711 609 541 436 385 280 290 333 579 581
2049 2180 2319 2375 2176 1693 1237 1295 1462 1436 1365 1242 853 676 172 645 732 870 1016 1057 875 619 599 474 432 375 331 226 179 733 556 695
2071 2226 2380 2502 1957 2131 1768 1800 1769 1609 1807 1528 1608 1192 936 958 723 803 872 824 564 413 418 275 291 526 318 207 483 454 415 546
2092 2306 2462 2482 2341 2327 2034 1985 1870 2067 1726 1777 1728 1175 1723 1088 1255 811 1226 719 728 417 174 639 510 542 523 682 409 467 315 127
2134 2137 2436 2714 2318 2125 2049 2126 1958 1958 1981 2152 1587 1482 1368 1248 432 126 710 1315 896 337 642 857 590 519 515 476 244 287 41 123
2085 2186 2578 2638 2378 1925 2036 2214 2167 2149 1915 2097 1644 1416 1071 881 762 736 858 1207 1151 490 722 897 680 432 383 258 113 39 25 94
1558 2292 2430 2807 2212 2075 2141 1976 1887 2061 1955 1894 1601 1362 1549 1019 1213 848 567 1068 665 212 310 497 594 290 315 124 49 32 10 39
1129 2100 2618 2797 2042 1848 1935 1694 1696 1867 1556 1887 1653 1408 1418 1212 1147 904 617 1052 197 77 88 155 471 212 142 68 59 39 9 8
437 1072 2497 2883 2400 2264 1817 1499 1576 1743 1307 1514 1604 1217 1135 1332 1040 1207 897 852 160 57 127 93 58 142 168 86 49 36 16 9
56 1483 1990 2952 2507 2023 1917 1670 1511 1523 1344 1074 1190 1085 920 990 1086 995 814 794 527 88 62 33 14 82 106 111 119 41 22 6
0 932 2028 2855 2438 2016 1831 1536 1103 1122 925 906 955 983 743 702 976 920 969 640 278 26 35 30 19 78 67 90 67 52 33 9
110 466 1699 2304 2060 1987 1269 1049 1136 1148 677 579 699 874 537 645 566 549 149 112 83 68 58 55 55 227 125 110 107 82 103 14
316 664 1310 1935 1472 1309 1212 1314 1128 1059 678 581 368 295 366 278 384 207 24 68 72 31 48 22 42 234 123 102 85 59 36 16
488 736 1059 1665 1200 1246 1318 1126 862 652 328 399 444 146 58 20 16 61 32 42 30 38 49 25 0 109 172 64 66 36 46 31
637 738 975 1498 1006 1246 1473 1045 670 660 558 522 343 281 95 12 2 7 9 19 28 32 34 66 69 125 167 126 128 62 18 37
889 916 1049 1343 1383 1382 1457 1380 940 640 464 538 369 293 173 44 5 17 38 9 3 34 5 64 59 145 158 146 156 132 99 20
950 901 1162 1306 1417 1559 1431 1324 916 636 502 460 506 405 405 122 44 3 2 4 16 21 23 47 57 84 175 221 174 146 103 172
193 454 877 993 1313 1526 1318 1107 765 590 510 406 411 388 230 166 38 7 12 5 3 7 30 54 30 23 43 122 241 206 210 189
52 350 746 678 1064 1343 976 815 614 372 255 191 142 273 100 15 21 10 25 1 8 40 30 45 47 8 30 101 213 222 174 153

GFSFLT2_con_mucape_123.txt.gz
CAPE
728 892 1064 1158 1291 1404 1484 1141 1082 1484 1435 1036 738 539 261 288 417 93 175 384 467 439 895 779 692 586 486 309 290 492 417 329
756 902 988 1008 1019 1276 1392 1257 1232 1586 1398 913 536 314 214 280 537 197 87 184 408 1067 833 615 603 429 324 219 377 429 328 259
1025 1116 1073 1023 869 1079 1295 1420 1519 1575 1443 1155 697 246 20 403 533 396 486 432 629 888 682 508 452 404 248 204 343 284 265 172
1504 1395 1321 1398 1197 894 1161 1224 1358 1447 1355 1093 735 399 292 110 422 505 535 507 625 560 468 363 315 292 174 143 217 281 216 145
1886 1667 1545 1752 1738 1060 929 1130 1103 1230 1164 1154 887 586 522 117 86 99 333 463 485 430 331 242 239 208 122 106 179 203 209 178
2052 1905 1834 1939 1719 1512 1020 1127 1114 1240 1184 1102 1002 753 543 134 454 346 234 340 364 124 185 148 193 140 95 95 167 182 146 112
1922 1976 2081 2115 1626 1680 1272 1409 1218 1112 1474 1250 1023 867 502 340 471 373 197 249 126 101 97 91 157 120 106 107 106 134 131 62
1937 1996 2249 2210 2054 1654 1712 1338 1490 1527 1212 1513 1107 995 692 529 403 287 140 216 110 119 72 56 61 86 115 99 74 108 92 46
1935 2045 2190 2279 2255 1976 1738 1774 1192 1684 1654 1382 1359 1031 798 702 367 253 160 185 284 187 64 66 63 97 93 97 74 43 43 45
1763 1950 2187 2328 2276 2044 1706 1784 1884 1608 1806 1585 1341 1074 836 753 427 303 290 199 303 153 52 34 49 37 44 82 50 25 25 5
1698 1808 2233 2408 2306 2170 1947 1807 1857 1702 1622 1652 1497 1161 781 672 348 187 210 185 105 54 41 20 30 39 15 40 36 19 12 0
1642 1847 2092 2451 2343 2308 2024 1685 1659 1568 1475 1195 1474 1266 890 653 504 356 233 182 116 44 10 3 8 26 59 67 8 2 7 2
1392 1845 2039 2452 2359 2310 2169 1998 1409 1478 1517 1240 1215 1459 1225 868 600 464 346 214 44 11 18 15 7 4 26 35 29 22 0 5
255 1580 2088 2243 2337 2187 2108 1963 1575 1359 1494 1262 969 1280 1243 909 578 483 350 186 104 65 21 26 14 8 1 1 23 0 1 0
409 1148 1915 2094 2318 2288 2094 1932 1679 1533 1363 1170 1444 1173 1282 807 623 415 320 242 153 78 32 20 20 1 14 14 23 3 0 0
114 888 1737 1978 2184 2299 2134 1873 1634 1576 1087 1151 1525 1325 1188 1046 556 438 307 260 120 68 60 42 20 13 13 14 4 10 13 4
28 49 1312 1671 2187 2217 2117 1842 1633 1466 896 1065 904 992 959 854 539 417 231 194 84 68 202 57 49 40 34 2 20 1 9 3
153 186 425 1539 1947 2125 2056 1888 1669 936 1069 955 935 954 823 722 215 498 547 112 68 99 48 34 47 27 17 22 12 20 5 2
630 692 1308 1462 1532 1755 1920 1832 1527 998 684 615 892 695 393 615 299 38 330 289 45 139 102 43 28 32 19 8 16 26 2 2
915 856 748 1271 1295 1446 1556 1497 1186 1041 978 743 661 566 254 148 208 32 20 83 190 99 85 12 4 23 27 21 9 15 19 22

GFSFLT2_con_mucape_126.txt.gz
CAPE
767 942 1086 1338 1528 1535 1185 1108 1188 1502 1246 830 774 629 366 551 451 176 349 367 598 404 810 625 618 524 454 468 429 433 388 459
677 882 1018 1207 1365 1465 1277 1113 1134 1497 1309 847 447 176 118 335 165 250 338 420 523 544 742 516 495 392 280 289 383 411 335 377
630 805 933 1035 1238 1400 1266 1037 1144 1483 1171 814 420 62 4 166 25 85 294 360 377 835 704 558 382 301 188 320 330 302 275 289
562 736 809 892 1065 1327 1323 1183 1253 1505 1135 717 358 26 0 4 183 53 102 111 467 879 842 461 295 278 146 247 317 327 226 262
741 696 790 826 879 1142 1304 1366 1393 1385 1259 849 495 105 0 10 211 215 50 262 449 581 492 296 284 217 134 253 258 239 181 176
1337 942 975 1075 865 891 992 1120 1264 1262 1214 936 656 260 129 22 179 229 156 223 332 351 236 205 211 233 111 193 250 187 125 69
1752 1488 1177 1324 1243 717 834 924 1013 1045 1107 1056 796 515 337 160 11 0 54 190 267 324 100 150 174 189 89 118 135 110 138 94
1907 1881 1594 1499 1543 1434 809 817 946 1004 946 1032 953 700 547 384 170 306 45 210 271 138 51 114 152 134 88 70 78 59 86 84
1856 2039 1909 1804 1612 1598 1368 927 953 959 1095 1046 980 886 722 271 227 355 152 80 73 19 11 67 99 93 63 64 52 48 74 71
1953 1989 2081 2024 1964 1768 1582 1179 1311 1156 1045 1349 1191 977 844 536 481 419 279 110 19 0 0 30 39 62 45 5 24 32 50 60
1810 1990 2113 2192 2096 2005 1833 1544 1364 1405 1522 1417 1401 1152 933 776 684 434 313 167 60 0 10 1 34 38 34 13 21 38 54 73
1494 1862 2109 2267 2223 2085 2037 1837 1839 1747 1755 1799 1590 1326 1176 1010 756 530 283 155 60 32 12 4 22 30 47 30 15 20 38 88
1135 1617 1990 2256 2250 2190 2068 1950 1725 1755 1747 1806 1705 1459 1294 1043 762 609 308 291 87 49 45 29 2 27 48 17 9 18 44 20
525 1456 1766 2252 2238 2190 2021 2014 1776 1888 1807 1754 1666 1542 1286 1066 748 531 311 219 136 120 91 27 13 15 16 21 7 0 29 0
0 1267 1743 2249 2234 2095 2026 1965 1784 1791 1662 1624 1483 1304 1397 1199 1391 895 527 427 283 214 182 54 15 15 4 10 8 0 0 0
0 1104 1744 2230 2194 2051 2076 1883 1860 1849 1681 1537 1440 1018 1541 1500 1093 1257 928 450 686 325 187 89 43 61 11 0 6 3 5 0
218 1260 1828 2148 2251 2095 2069 1859 1673 1612 1504 1434 1290 907 1534 1279 1447 1161 646 515 351 304 164 182 118 82 66 26 8 23 16 76
235 1273 1818 2085 2276 2164 1995 1873 1684 1646 1436 1551 1432 1113 1180 1194 1149 1061 982 409 346 320 221 285 154 309 141 43 22 27 8 11
306 931 1678 1996 2140 2192 2052 1944 1856 1651 1499 1509 1083 737 1175 1343 972 762 760 578 550 363 255 81 122 126 85 85 61 55 19 19
774 1105 1325 1725 2011 2088 2141 2053 1902 1736 1650 1351 1091 512 820 816 1033 792 599 637 341 196 353 72 66 45 100 71 73 41 54 11

GFSFLT2_con_mucape_132.txt.gz
CAPE
911 1023 1206 1291 1434 1527 1460 1361 1284 1323 1141 1126 1154 979 685 540 634 720 723 854 838 916 834 771 697 627 594 612 658 634 574 570
904 986 1188 1318 1306 1443 1459 1431 1365 1280 1056 957 946 700 448 265 203 404 588 637 684 824 740 800 729 603 569 556 576 535 423 435
828 935 1175 1263 1281 1373 1469 1473 1444 1227 989 823 679 420 264 86 3 210 427 418 482 581 665 821 680 616 648 557 506 427 410 372
685 1049 1120 1249 1189 1352 1356 1357 1430 1343 979 729 455 191 63 0 0 39 191 238 400 323 469 606 580 579 571 550 465 351 369 394
887 1137 1078 1417 1280 1219 1227 1345 1356 1359 1154 739 506 279 57 0 0 7 20 108 310 355 403 550 548 444 358 383 368 294 345 407
611 1096 1128 1268 1123 1186 1173 1218 1291 1656 1233 891 552 284 0 0 0 0 0 21 506 296 340 425 411 339 225 331 313 288 295 346
1142 746 1166 1429 1195 1159 989 1065 999 1304 1486 996 651 385 0 0 0 0 0 10 183 230 315 364 384 320 233 241 286 297 244 210
1473 1237 811 1037 1087 976 847 908 863 1634 1392 980 759 457 0 4 0 0 0 0 33 146 514 346 317 311 245 196 251 189 143 144
1390 1566 1274 964 979 805 843 759 847 1676 1132 978 851 501 46 20 35 4 0 0 33 262 249 83 134 183 202 148 110 81 88 91
1368 1531 1434 1191 909 758 704 751 670 1407 950 1354 819 621 325 80 112 32 50 5 53 168 32 40 67 115 81 108 237 56 64 42
754 1733 1549 1509 1265 999 786 663 937 1110 1346 1502 999 732 605 271 146 150 77 20 21 16 8 18 25 60 70 50 69 53 67 39
4 1716 1757 1624 1667 1448 1264 733 807 1017 1263 1494 1427 941 717 601 348 358 132 114 88 30 29 1 6 26 47 44 26 44 66 39
0 1565 1960 1928 1911 1766 1634 1256 855 976 965 1160 1222 1510 1021 814 639 477 412 205 305 81 49 8 0 5 18 18 6 0 18 17
0 906 1951 2119 2046 1906 1865 1773 1229 995 877 992 1089 1381 1236 860 853 713 577 313 405 330 127 40 10 0 2 6 0 1 1 2
0 0 1530 2154 2178 2109 1982 1894 1562 1318 1199 1117 1405 1332 1110 855 963 862 742 571 590 465 288 162 76 0 1 13 8 0 1 0
0 0 111 1819 2171 2121 1873 1830 1660 1470 1466 1369 1620 1492 970 1090 1157 1046 942 861 778 579 413 285 173 30 11 21 16 5 0 0
0 0 0 735 2065 2095 1896 1781 1708 1642 1597 1461 1496 1516 1190 1462 1511 1434 1200 1077 630 534 498 312 219 104 42 31 23 58 10 6
0 0 0 614 1930 2116 1938 1807 1720 1681 1625 1608 2150 1995 1498 1831 1745 1662 1344 1110 1145 729 423 337 289 155 131 57 67 103 10 17
0 0 1 811 1852 2199 2043 1851 1743 1645 1616 1548 1915 1841 1310 1678 1515 1583 1131 1062 957 741 645 658 359 135 107 65 97 73 49 38
424 639 785 1204 2038 2239 2107 1902 1817 1699 1579 1454 1187 1132 1243 1574 1611 1595 1239 698 918 783 1011 868 593 545 68 89 112 94 71 82

GFSFLT2_con_mucape_135.txt.gz
CAPE
1456 1704 1632 1571 1726 1807 1646 1419 1349 1393 1457 1465 1255 923 619 786 1019 1141 1060 1076 1082 1065 845 842 867 894 877 829 733 661 1038 927
1238 1539 1709 1863 2050 1792 1617 1421 1391 1314 1313 1318 1084 748 448 453 661 724 813 794 898 824 771 775 768 789 769 724 709 575 929 1074
1215 1413 1359 1221 1538 1850 1612 1466 1440 1306 1217 1158 1051 1173 875 520 280 297 510 533 620 530 641 644 665 646 635 661 678 979 1029 1025
1131 1145 1089 1082 1378 1503 1837 1763 1840 1812 1551 1454 1334 1147 930 515 146 110 354 299 388 437 566 496 575 932 609 630 1114 1011 824 817
859 872 877 987 1439 1391 1463 1799 1861 1556 1638 1433 1156 894 650 300 349 251 745 474 843 542 409 738 845 709 1079 979 915 904 862 768
976 869 850 1098 1093 1509 1530 1584 1758 2082 1178 1355 1018 792 703 329 187 342 437 760 597 801 710 748 769 875 1003 849 595 632 882 771
1148 1067 1003 930 1248 1516 1504 1780 1788 2210 1611 993 1030 745 573 297 157 256 254 527 307 461 380 862 757 585 798 372 448 870 826 713
1704 1282 1404 1204 1233 1225 1294 1623 1817 1220 1356 1102 891 680 403 321 177 152 257 429 596 327 302 246 716 646 756 817 831 745 508 167
1366 1676 1629 1520 1487 1273 1260 1433 1285 1109 1026 1172 958 678 336 285 257 97 175 274 540 94 65 399 363 161 478 527 302 152 116 113
5 1176 1556 1570 1385 1617 1597 1482 1286 1061 1031 965 1020 797 550 247 261 158 274 181 78 1 1 138 146 314 192 175 233 134 152 93
0 67 1808 1816 1772 1638 1744 1637 1422 1034 958 1020 923 826 666 335 300 231 30 47 2 1 25 99 44 172 221 232 302 103 203 145
0 0 1072 2048 1863 1606 1477 1423 1333 1225 1018 767 889 901 700 380 438 171 66 5 0 13 193 218 285 213 109 41 267 289 397 332
0 0 170 1902 1882 1410 1234 1177 1295 1295 1049 956 1115 1190 673 564 427 182 157 224 89 146 231 197 19 67 1 7 12 35 70 179
0 0 0 1580 1800 1829 1721 1634 1371 1328 1223 868 1016 1228 892 593 640 394 258 147 109 112 178 73 60 9 30 8 6 3 4 60
0 0 0 1222 1873 1923 1990 1829 1786 1472 1233 903 898 1151 1058 1059 542 486 356 366 218 160 351 244 97 9 52 0 13 11 12 9
0 0 0 711 2303 2263 1982 1856 1819 1632 1540 1328 1122 1033 949 888 896 545 479 479 475 266 342 329 211 54 55 24 0 0 9 3
0 0 0 26 2265 2572 2382 2467 2389 2279 1782 1566 1183 1107 1283 1238 1105 527 540 591 596 433 440 407 310 199 97 59 8 0 1 3
0 0 0 0 2117 2731 2725 2669 2527 2409 2016 1716 1248 1401 1189 1248 1357 590 655 775 763 732 706 612 451 361 235 172 121 27 0 9
0 0 0 0 1697 2649 2870 2804 2745 2462 2139 1954 1388 1427 1082 1284 1522 953 920 1095 1117 1013 728 408 527 622 404 499 286 282 172 22
0 0 0 44 1515 2690 2966 2949 2604 2459 2278 2217 1702 1596 1342 1215 1697 1194 1252 1517 1420 937 995 706 476 467 402 189 282 369 290 172

GFSFLT2_con_mucape_138.txt.gz
CAPE
2414 2355 1874 1517 1682 1741 1661 1448 1424 1574 1756 1832 1676 1387 1119 1265 1414 1550 1528 1424 1368 1249 988 1012 844 881 727 724 728 824 1090 1045
2246 2301 2250 2203 2139 1700 1706 1455 1346 1518 1670 1721 1471 1126 806 896 1098 1245 1216 1228 1194 1019 863 897 891 829 820 738 625 716 998 1068
1915 1924 2020 1988 1931 1878 1759 1514 1375 1395 1549 1558 1425 1496 1264 1074 1044 878 949 923 942 734 667 742 802 768 724 690 583 906 1009 935
1659 1830 1842 1823 1503 1612 1926 2009 2081 2043 1975 2021 1814 1688 1493 1001 751 558 653 651 528 446 363 567 569 1276 976 591 1126 1170 1027 952
1379 1656 1786 1752 1532 1617 1785 1856 1994 2090 2063 2056 1907 1778 1669 1219 1011 617 1049 582 907 548 732 1225 1148 1230 1124 1245 1165 1378 1160 854
1236 1335 1630 1756 1581 1620 1677 1645 2363 1999 1965 2222 2132 1965 1685 1213 1078 804 909 899 932 927 896 1089 862 1341 1285 1111 973 1054 1232 936
406 1335 1433 1600 1733 1553 1785 1686 1740 1770 1926 1893 2101 1781 1745 1370 931 860 869 886 1017 1063 1052 1218 1268 1247 1252 1071 1105 983 936 1108
13 625 1660 1539 1607 1694 1819 1988 1816 1889 1845 1812 2127 1825 1746 1364 1000 771 686 891 835 989 1068 1101 1083 1128 1093 912 780 870 943 1135
0 74 1017 1869 1631 1680 1837 1856 2133 2129 1774 1719 1793 2011 1800 1341 1065 767 781 957 891 1075 1159 1228 1085 1059 1045 1077 934 972 1081 825
0 0 21 1527 1942 1725 1742 1660 2222 2081 1909 1618 1661 1979 1733 1371 1122 859 786 976 1099 1099 1118 672 773 942 905 776 685 766 852 607
0 0 0 0 1598 2036 2273 2077 2082 2023 1902 1679 1482 1828 1834 1353 1136 991 926 865 934 719 654 783 682 713 557 523 790 556 785 537
0 0 0 0 552 2158 1965 1895 1904 1840 1839 1734 1657 1536 1844 1636 1132 1152 1095 873 756 550 392 753 734 630 353 606 307 435 435 546
0 0 0 0 1 1139 2045 2328 2229 2133 1904 1724 1808 1455 1905 1706 1253 1312 831 800 659 482 441 745 776 506 305 234 416 135 144 342
0 0 0 0 0 545 1836 2336 2706 2225 2265 1964 1899 1616 1497 1885 1678 1436 612 679 732 559 832 759 610 705 449 264 147 5 102 319
103 0 0 0 0 110 1490 1798 2216 2194 2397 2014 2152 1616 1228 1567 1812 1635 860 894 581 514 1024 825 542 302 602 402 213 175 119 41
295 22 0 0 0 65 1387 1541 1530 1793 2030 2214 2199 1719 1460 1233 1592 1746 1499 1133 987 631 1123 989 811 286 665 419 407 298 278 145
16 0 0 0 0 1 1444 1688 1455 1888 1849 2272 2365 2024 1398 1105 1310 1418 1383 1082 1469 1220 1041 1489 1295 795 549 619 581 378 372 325
25 66 0 0 0 26 1745 2255 1860 1781 2305 2546 2457 2120 1458 1208 1267 1132 1323 1145 1157 877 891 1385 1289 1081 636 592 695 463 283 288
143 226 0 0 0 15 1909 2355 2368 2593 2367 2541 2422 2040 1449 1289 1377 1082 1139 1205 1120 956 726 814 1426 1295 1035 766 796 748 466 325
336 347 0 0 0 3 1576 2384 2246 2356 2457 2508 2611 2337 1747 1513 1242 1198 1087 1151 1071 909 657 887 1638 1855 1397 1006 1071 927 707 483

GFSFLT2_con_mucape_141.txt.gz
CAPE
2801 2575 1974 1688 1801 1747 1611 1424 1396 1569 1878 2005 1929 1693 1622 1676 1750 1642 1787 1701 1581 1307 1059 949 845 704 620 470 373 356 651 811
2605 2766 2645 2564 2358 1757 1691 1510 1349 1458 1726 1880 1767 1532 1354 1333 1378 1521 1582 1493 1414 1164 893 836 718 657 579 540 569 489 1134 849
2262 2396 2529 2559 2519 2290 1711 1621 1434 1403 1579 1725 1714 1795 1678 1542 1266 1179 1308 1271 1180 981 801 718 579 595 602 620 572 897 1130 993
1801 2085 2063 2184 1790 2413 2218 2182 1997 1927 1849 2137 2006 1927 1759 1453 1153 921 978 1022 927 819 712 548 530 1085 787 425 924 650 830 902
1255 1700 1936 2026 1712 1812 2113 1984 1964 1943 2295 2176 2083 1969 2283 1564 1570 1262 1256 741 1047 702 728 880 852 1308 983 970 1265 1644 1025 972
0 1427 1670 2055 1704 1574 1660 1838 2223 1973 2149 2788 2302 2413 2243 1659 1352 1138 1179 989 1056 815 745 739 1047 1225 1093 1137 1141 1305 1310 1268
0 0 1401 1731 2038 1590 1856 1881 2081 2394 2321 2499 2518 2184 2463 1634 1631 1172 945 957 1306 1200 849 1080 1391 1249 1226 1141 1121 1203 1140 1333
0 0 0 1576 1928 2217 2312 2177 1932 2260 2289 2225 2572 2583 2610 1551 1582 1177 898 852 847 1336 1154 1383 1579 1055 1270 986 967 1198 1273 871
0 0 0 0 1595 2196 2186 1867 2108 2066 2186 2254 2413 2877 2668 2304 1638 1275 953 1051 1247 1626 1760 1411 1483 990 1053 979 1043 1026 1058 945
0 0 0 0 0 2436 2221 2088 2275 2233 2303 2507 2289 3035 2737 2580 1656 1539 1137 1257 1045 1236 1080 1390 1540 1108 1187 776 943 1011 934 854
0 0 0 0 0 111 2978 2839 2655 2474 2592 2692 2583 2679 2791 2482 1952 1785 1919 1250 1255 1390 1319 1365 1219 1054 781 1238 896 836 999 754
0 1 7 2 0 0 493 2578 2869 2648 2564 2793 3005 2397 2916 2858 2080 2029 1810 1595 1431 1436 1418 1348 1140 794 598 456 788 902 993 1288
0 0 0 97 0 0 0 1561 2341 2675 2729 2673 3023 2347 2857 2939 2425 2280 2008 1822 1731 1862 1067 1136 1313 956 761 285 475 298 367 372
0 0 0 0 40 0 0 0 2208 2404 2755 2645 2854 2733 2626 2876 2718 2330 2192 1910 1972 1819 1427 1185 1388 796 653 205 37 72 168 187
0 0 0 0 102 9 0 0 694 2208 2283 2533 2824 2967 2442 2914 2841 2574 2353 2025 1906 1816 1564 1460 1260 1221 969 551 335 231 219 69
0 0 0 0 64 357 11 0 233 1727 2230 2170 2854 2918 2486 2564 2779 2764 2273 1923 1982 1798 1629 1839 1553 1167 1256 957 1124 358 414 338
0 0 0 0 14 573 21 47 338 1574 2163 1723 2384 2816 2644 2187 2758 2770 2524 2014 2110 1864 1634 2139 1748 1098 915 1252 1300 813 668 356
0 0 0 3 0 620 322 58 552 2109 2035 1854 1551 2373 2513 1860 1920 2814 2905 2220 2258 2043 1688 2166 1843 1645 1079 1280 1109 950 550 440
0 0 0 11 44 564 183 172 24 1968 2110 2156 1116 1756 2441 1830 1512 2380 2790 2582 2289 2418 1908 2085 2087 1792 1891 1185 1324 995 591 445
16 6 28 0 119 233 224 202 56 1914 1908 1744 874 196 1310 2083 1728 1658 2485 2633 2249 2415 2093 1941 2192 2256 1802 1775 1282 1189 711 489

GFSFLT2_con_mucape_147.txt.gz
CAPE
2616 2452 1961 1634 1498 1402 1325 1314 1534 1753 1911 1885 1782 1629 1595 1581 1539 1521 1584 1539 1506 1190 1052 953 881 830 824 560 191 87 149 46
2608 2404 2195 1509 1451 1458 1334 1227 1285 1534 1797 1846 1755 1613 1488 1460 1408 1418 1505 1519 1342 1078 964 851 776 808 738 536 236 118 46 7
1774 2587 2280 2137 1747 1462 1428 1298 1173 1352 1629 1756 1734 1593 1442 1371 1331 1274 1310 1357 1273 1065 886 814 769 725 573 477 114 62 89 42
0 345 2166 2365 2405 2216 2010 1491 1207 1164 1372 1545 1591 1594 1574 1426 1300 1250 1283 1220 1167 1087 840 747 713 568 493 384 188 133 174 248
0 14 68 1349 1398 2114 1957 1844 1624 1299 1346 1533 1399 1552 1601 1600 1406 1160 1155 1120 1033 933 783 676 615 452 357 387 301 238 64 40
0 0 4 110 620 1276 1625 1890 2045 1826 1634 1659 1731 1569 1515 1645 1466 1364 980 917 860 750 621 509 480 575 590 390 400 162 118 1
0 0 0 135 121 265 678 928 1381 1889 1900 1789 2014 1791 1682 1629 1325 1149 961 922 811 810 574 495 514 526 725 472 544 302 164 53
0 0 0 0 0 12 63 638 989 1431 1696 1953 1844 2140 1844 1734 1511 1416 1156 1045 915 804 775 585 495 668 579 657 733 286 277 154
0 0 0 0 0 0 3 52 392 929 1240 1481 2062 2085 2120 1878 1665 1462 1497 986 1008 868 837 689 661 799 627 684 742 497 243 254
0 0 0 0 0 0 0 0 49 209 1045 1486 1679 2243 2206 2068 1859 1376 1390 1114 982 1059 879 747 672 647 733 677 590 543 316 84
0 0 0 0 0 0 0 0 0 3 66 861 1581 1796 2303 1953 2050 1585 1318 1243 999 900 885 758 648 559 637 584 511 511 435 170
0 0 0 0 0 0 0 0 0 0 0 91 1123 1568 1871 2173 1868 2162 1723 1185 969 976 763 728 594 450 588 558 485 639 586 408
0 0 0 0 0 0 0 0 0 0 0 0 252 955 1531 1912 1679 1868 1903 1196 900 916 717 766 690 441 548 506 559 537 317 319
0 0 0 0 0 0 0 0 0 0 0 0 0 111 1205 1362 1612 1691 1967 1392 926 946 731 766 715 549 510 422 554 383 225 241
0 0 0 0 0 0 0 0 0 0 0 0 0 0 151 1163 1288 1437 1702 1526 1051 1034 799 626 735 605 508 388 259 223 131 66
0 0 0 0 0 0 0 0 0 0 0 0 0 0 0 611 1141 1204 1395 1574 1131 1047 964 715 564 690 633 431 40 5 0 4
0 0 0 0 0 0 0 0 0 0 0 0 0 0 0 0 1012 980 968 1225 1172 997 1004 912 643 587 559 401 99 27 103 29
0 0 0 0 0 0 0 0 0 0 0 0 0 0 0 0 761 987 20 553 1010 949 1002 971 797 579 522 425 175 54 405 231
0 0 0 0 0 0 0 0 0 0 0 0 0 0 0 0 436 658 3 69 750 970 947 927 907 593 577 519 391 127 277 487
0 0 0 0 0 0 0 1 0 0 0 0 0 0 0 238 679 479 102 0 8 747 918 906 823 653 688 503 449 339 256 540

GFSFLT2_con_mucape_150.txt.gz
CAPE
2357 2155 1863 1384 1300 1243 1196 1253 1489 1726 1875 1906 1879 1741 1619 1545 1554 1542 1515 1450 1441 1329 1101 1025 980 938 812 529 248 58 84 229
2085 2350 1796 1923 1433 1357 1266 1181 1176 1416 1709 1821 1766 1648 1579 1515 1451 1430 1455 1474 1471 1259 1065 989 922 891 763 592 253 28 59 41
0 581 1351 1638 1573 1544 1278 1165 1058 1108 1394 1693 1766 1632 1529 1452 1407 1388 1441 1462 1353 1149 987 881 834 862 681 650 262 59 51 30
0 50 67 554 1023 1089 1333 1705 1347 1045 1124 1290 1917 1637 1531 1481 1423 1352 1306 1364 1327 1137 941 832 841 718 599 473 306 148 19 5
0 0 0 0 121 446 835 1311 1308 1321 1093 1108 1262 1527 1573 1503 1429 1369 1353 1335 1250 1165 1003 810 752 716 614 357 165 119 121 74
0 0 0 0 0 1 149 542 906 1185 1325 1458 1220 1360 1436 1536 1658 1469 1269 1317 1153 1088 937 746 663 646 471 453 306 200 116 15
0 0 0 0 0 0 24 61 199 371 625 957 1577 1497 1589 1397 1534 1731 1462 1243 1105 976 869 712 555 642 619 427 435 223 72 3
0 0 0 0 0 0 0 1 13 57 217 704 1226 1533 1672 1707 1494 1602 1637 1433 1069 934 814 661 513 518 568 411 458 343 4 6
0 0 0 0 0 0 0 0 0 0 27 225 604 1287 1578 1810 1641 1650 1536 1248 1044 1010 849 699 606 481 560 522 473 324 196 35
0 0 0 0 0 0 0 0 0 0 0 5 124 513 1191 1484 1733 1593 1629 1545 1370 1109 841 833 865 557 712 621 514 401 217 119
0 0 0 0 0 0 0 0 0 0 0 0 0 174 288 1365 1406 1720 1571 1499 1496 1496 926 961 893 747 788 603 535 433 286 309
0 0 0 0 0 0 0 0 0 0 0 0 0 0 48 144 1065 1380 1698 1587 1539 1338 1209 1035 947 861 734 635 482 445 389 297
0 0 0 0 0 0 0 0 0 0 0 0 0 0 0 0 66 796 1295 1571 1382 1199 1270 1065 975 837 775 614 576 451 449 311
0 0 0 0 0 0 0 0 0 0 0 0 0 0 0 0 0 0 887 1095 1347 1285 1210 1255 915 810 692 576 477 470 487 473
0 0 0 0 0 0 0 0 0 0 0 0 0 0 0 0 0 0 112 770 1058 1186 1398 1148 944 766 622 508 459 366 426 616
0 0 0 0 0 0 0 0 0 0 0 0 0 0 0 0 0 0 0 519 714 1014 1255 1277 948 833 661 541 483 279 323 670
0 0 0 0 0 0 0 0 0 0 0 0 0 0 0 0 0 0 0 147 736 868 1001 1171 954 818 784 680 632 413 320 262
0 0 0 0 0 0 0 0 0 0 0 0 0 0 0 0 0 0 0 0 672 463 666 964 1006 848 786 667 544 533 379 207
0 0 0 0 0 0 0 0 0 0 0 0 0 0 0 0 0 0 0 0 393 326 6 165 844 797 712 674 553 532 475 265
0 0 0 0 0 0 0 0 0 0 0 0 0 0 0 0 1 0 0 0 264 178 128 0 21 526 656 669 530 552 515 429